{"data":{"norad_id":66350,"epoch":"2026-05-24T22:56:57.895296Z","epoch_age_seconds":72851,"freshness":"FRESH","line1":"1 66350U 25254C   26144.95622564  .00016000  00000+0  55104-3 0  9998","line2":"2 66350  53.1561 238.1160 0000800  70.2026 289.9061 15.30206644 30659","mean_motion":15.30206644,"eccentricity":8.0e-5,"inclination_deg":53.1561,"raan_deg":238.116,"arg_perigee_deg":70.2026,"mean_anomaly_deg":289.9061,"bstar":0.00055104,"rev_number":3065,"period_min":94.104937110703,"perigee_km":474.64696512616,"apogee_km":475.74349828323,"semimajor_km":6853.3322317047,"source":"CELESTRAK","updated_at":"2026-05-25T13:38:21.173557Z"}}